Regional Weather Roundup
Issued by NWS Charleston, SC

Current Version | Previous Version | Graphics & Text | Print | Product List | Glossary On
Versions: 1 2 3 4 5 6 7 8 9 10 11 12 13 14 15 16 17 18 19 20 21 22 23 24 25 26 27 28 29 30 31 32 33 34 35 36 37 38 39 40 41 42 43 44 45 46 47 48 49 50
000
ASUS42 KCHS 261627
RWRCHS

REGIONAL WEATHER ROUNDUP
NATIONAL WEATHER SERVICE CHARLESTON SC
1200 PM EDT SUN APR 26 2015

NOTE: "FAIR" INDICATES FEW OR NO CLOUDS BELOW 12,000 FEET WITH NO
SIGNIFICANT WEATHER AND/OR OBSTRUCTIONS TO VISIBILITY.

NOT ALL STATIONS ARE QUALITY CONTROLLED BY THE NATIONAL
WEATHER SERVICE. USE DATA WITH CAUTION...ESPECIALLY
DEWPOINT OBSERVATIONS.

SCZ027-030-031-034>040-042>050-261700-
...SOUTHEAST SOUTH CAROLINA...

CITY           SKY/WX    TMP DP  RH WIND       PRES   REMARKS
N CHARLESTON   MOSUNNY   78  65  63 W10G20    29.64F
WATERFRONT PRK   N/A     77 N/A N/A W9G16       N/A
MOUNT PLEASANT FAIR      79  66  65 MISG      29.63S
PINOPOLIS      NOT AVBL
MONCKS CORNER  FAIR      81  64  57 W6        29.63F
SUMMERVILLE    FAIR      79  66  65 W10       29.64F
BEAUFORT MCAS  SUNNY     80  67  64 W13G22    29.67S
BEAUFORT ARPT  FAIR      81  68  65 W10G18    29.66S
HILTON HEAD IS SUNNY     79  68  69 W9        29.69S
WALTERBORO     SUNNY     79  64  61 W8        29.65F
ALLENDALE      FAIR      79  66  65 VRB7      29.65S

...SOUTHERN MIDLANDS AND PEE DEE...

CITY           SKY/WX    TMP DP  RH WIND       PRES   REMARKS
GEORGETOWN     NOT AVBL
KINGSTREE      NOT AVBL
ORANGEBURG     SUNNY     79  64  60 W13       29.64S
BARNWELL         N/A    N/A N/A N/A MISG        N/A
AIKEN          FAIR      79  61  53 SW12      29.67F
MANNING        FAIR      77  50  38 W8        29.62F HAZE
COLUMBIA       SUNNY     82  60  47 W13       29.61F
SUMTER         PTSUNNY   78  64  62 SW7       29.60F
FLORENCE       CLOUDY    60  55  83 NE10      29.66R
MYRTLE BEACH   PTSUNNY   75  63  64 NW14      29.64R
N MYRTLE BEACH PTSUNNY   71  62  73 N10       29.62R

$$

GAZ063-065-086>088-099>101-113>116-118-119-134>141-150-261700-
...SOUTHEAST GEORGIA...

CITY           SKY/WX    TMP DP  RH WIND       PRES   REMARKS
SAVANNAH ARPT  MOSUNNY   79  66  64 W15       29.69S
HUNTER AAF     SUNNY     80  69  68 W13G18    29.67S
FORT STEWART   MOSUNNY   80  68  67 W14G22    29.69S
STATESBORO       N/A     78  68  69 W13       29.69S
SYLVANIA       SUNNY     79  68  69 W7        29.68F
CLAXTON        FAIR      79  68  69 W9G16     29.71S

...CSRA...CENTRAL AND FAR SOUTHEAST GEORGIA...

CITY           SKY/WX    TMP DP  RH WIND       PRES   REMARKS
THOMSON        MOSUNNY   78  69  72 W10G20    29.72S
AUGUSTA-BUSH   MOSUNNY   79  66  64 W13       29.65F
AUGUSTA-DANIEL SUNNY     77  64  64 SW8       29.67S
SWAINSBORO     NOT AVBL
VIDALIA        SUNNY     77  68  73 SW9       29.72F
EASTMAN        FAIR      78  69  73 W8        29.75F
HAZLEHURST     FAIR      82  67  62 W8        29.73S
ALMA           SUNNY     80  66  62 W15       29.74R
WAYCROSS       SUNNY     86  69  55 W12       29.73F HX  90
JESUP          FAIR      84  72  65 NW10      29.72F
BAXLEY         PTSUNNY   82  68  61 W8        29.72F
BRUNSWICK      SUNNY     82  64  54 W12       29.72F
SAINT SIMONS   SUNNY     82  66  58 W9        29.72S

$$

SCZ027-028-034-036>038-045-046-048>050-GAZ119-141-261700-
...LAKE AND SUPPLEMENTAL COASTAL OBSERVATIONS...

STATION/POSITION TIME  TEMP    WIND        PRES    WAVE   SWELL
                       AIR SEA DIR/SP/G            HT/PER HT/PER/DIR
                 (UTC) (F)     (DEG/KT/KT) (MB)    (FT/S) (FT/S/D)
UPR LAKE MARION  NOT AVBL
WINYAH BAY       1500   73     280/ 11     1002.0S
LAKE MURRAY      1500   73     260/ 13/ 16 1002.7S
ACE BASIN NERRS  1500   75     270/  5     1005.0
FORT PULASKI     1600   76 70  270/ 10/ 13 1005.7S
SAPELO ISLAND    1500   78     280/ 11     1006.0S

$$

ANZ835-935-AMZ111-154-330-350-352-354-370-450-454-472-261700-
...C-MAN AND BUOY OBSERVATIONS...

STATION/POSITION TIME  TEMP    WIND        PRES    WAVE   SWELL
                       AIR SEA DIR/SP/G            HT/PER HT/PER/DIR
                 (UTC) (F)     (DEG/KT/KT) (MB)    (FT/S) (FT/S/D)
BUOY 41004       1550   71 72  260/ 17/ 21 1003.0S   6/ 5   2/13
BUOY 41008       1550   72 70  250/ 10/ 10 1006.4R   3/ 5   2/150/ 5
FOLLY BEACH CMAN 1600   78     250/  9/ 13 1003.5F
CAPERS NEARSHORE 1508   72     280/ 12/ 14 1003.6S
FRIPP NEARSHORE  1500   73     270/ 12/ 14 1004.5R


STATION/POSITION TIME  TEMP    WIND        PRES    WAVE   SWELL
                       AIR SEA DIR/SP/G            HT/PER HT/PER/DIR
                 (UTC) (F)     (DEG/KT/KT) (MB)    (FT/S) (FT/S/D)
5E ST. MARYS GA  1521      69                N/A     2/ 5
FRYING PAN BUOY  1550   70 72  270/ 14/ 17 1003.0R   6/ 6
BUOY 41025       1550   58 72  350/ 21/ 25 1001.8R   5/ 8   2/170/15
CAPE LOOKOUT NC  1600   54     360/ 16/ 19 1003.2R
BUOY 41002       1550   72 71  250/ 16/ 17 1002.7F   7/ 8   3/230/ 8
BUOY 41010       1520   79 79  260/ 17/ 21 1008.1S
ST AUGUSTINE FL  1600   84 68  270/ 16/ 21 1008.3R


$$



USA.gov is the U.S. government's official web portal to all federal, state and local government web resources and services.